Location: Unspecified
(40.9799°N, 76.1133°W)
Time: 00:45:22
(UTC-04:00)

Tiangong - Visible Passes

Search period start: 25 September 2022 00:00
Search period end: 05 October 2022 00:00
Orbit: 377 x 383 km, 41.5° (Epoch: 24 September)

Date Brightness Start Highest point End Pass type
(mag) Time Alt. Az. Time Alt. Az. Time Alt. Az.
25 Sep 0.4 04:38:32 21° E 04:38:32 21° E 04:39:46 10° E visible
25 Sep -2.0 06:10:40 13° W 06:13:21 62° SSW 06:16:28 10° ESE visible
26 Sep -2.0 05:12:32 68° ESE 05:12:32 68° ESE 05:15:20 10° ESE visible
27 Sep -1.6 05:46:36 30° WSW 05:47:37 42° SSW 05:50:37 10° SE visible
28 Sep 0.4 04:48:36 18° ESE 04:48:36 18° ESE 04:49:34 10° ESE visible
28 Sep -0.3 06:20:45 10° WSW 06:22:51 17° SSW 06:24:58 10° SSE visible
29 Sep -0.4 05:22:51 22° S 05:22:51 22° S 05:24:31 10° SE visible
30 Sep 0.3 05:57:13 10° SSW 05:57:13 10° SSW 05:57:20 10° SSW visible
